Location: Boiu de Sus
(46.0167°N, 22.5833°E)
Time: 22:40:34
(UTC+00:00)

Daily predictions for brighter satellites

Satellite Brightness Start Highest point End
(mag) Time Altitude Azimuth Time Altitude Azimuth Time Altitude Azimuth
COSMOS 2428 4.0 17:38:07 10° N 17:42:50 25° NE 17:47:30 10° ESE
CSL-04 Rocket 3.7 17:39:27 10° SSE 17:44:46 89° WSW 17:50:05 10° NNW
NOSS 3-4 (A) 3.5 17:39:17 10° SSW 17:44:53 51° ESE 17:50:51 10° NE
NOSS 3-4 (C) 3.5 17:39:25 10° SSW 17:45:00 50° ESE 17:50:57 10° NE
USA 32 4.1 17:41:53 10° S 17:47:07 88° E 17:52:22 10° N
Cosmos 2360 Rocket 2.3 17:41:46 10° NNW 17:47:26 66° ENE 17:53:02 10° SE
Cosmos 1072 Rocket 4.5 17:41:48 10° S 17:47:57 78° E 17:54:05 10° N
Cosmos 1606 Rocket 4.0 17:43:54 10° SSE 17:47:58 39° E 17:52:03 10° NNE
Lacrosse 4 Rocket 4.2 17:45:34 10° WNW 17:48:27 18° WSW 17:51:15 10° SSW
SME Rocket 3.0 17:45:57 10° NNE 17:49:44 64° ESE 17:54:20 10° S
NOSS 3-2 (C) 4.3 17:42:39 10° NW 17:50:14 81° SW 17:58:49 10° SSE
Cosmos 1833 4.4 17:45:40 10° S 17:51:02 48° ESE 17:56:26 10° NE
CZ-2C R/B 2.8 17:46:16 10° N 17:51:28 77° WNW 17:56:41 10° SSW
Okean-O 3.9 17:47:46 10° S 17:52:00 44° W 17:56:16 10° NNW
Cosmos 1184 Rocket 2.9 17:51:11 10° NNW 17:54:23 74° W 17:57:34 10° S
ATLAS 2AS CENTAUR R/B 3.3 17:51:03 10° S 17:58:30 47° ESE 18:05:54 10° NE
Cosmos 1726 Rocket 4.0 17:55:12 10° SSE 17:59:19 41° E 18:03:25 10° NNE
Cosmos 1408 3.6 17:56:42 10° NNE 17:59:48 27° ENE 18:02:52 10° SE
SL-27 R/B 2.6 17:56:36 10° SSW 18:00:07 80° WNW 18:03:37 10° NNE
SL-16 R/B 3.3 17:56:06 10° NW 18:01:31 46° WSW 18:06:53 10° S
Cosmos 1269 Rocket 4.0 17:57:52 10° S 18:03:06 64° ESE 18:08:22 10° NNE
Cosmos 2237 4.4 17:59:14 10° NNW 18:04:57 78° WSW 18:10:37 10° SSE
Lacrosse 5 rocket 2.4 18:01:31 10° WSW 18:05:25 47° NNW 18:09:33 10° NE
Cosmos 2219 Rocket 2.9 18:00:14 10° NNW 18:05:34 39° NE 18:10:33 11° ESE
Cosmos 1689 Rocket 3.9 18:04:27 10° N 18:07:05 34° WNW 18:09:41 10° SW
Ariane Rocket 3.3 18:02:58 10° SE 18:07:50 51° ENE 18:12:44 10° N
IRS-1A Rocket 4.5 18:02:28 10° SE 18:07:52 56° ENE 18:13:24 10° N
Cosmos 1302 Rocket 4.0 18:02:53 10° NNW 18:08:13 80° ENE 18:13:30 10° SSE
BREEZE-M DEB (TANK) 3.4 18:08:24 10° SW 18:11:12 69° SSE 18:17:53 10° ENE
DMSP B5D2-2 4.2 18:06:45 10° NNE 18:12:01 83° WNW 18:17:16 10° SSW
OBJECT-B 0.7 18:09:45 10° SSE 18:12:57 72° ENE 18:16:10 10° N
Cosmos 2228 3.0 18:09:15 10° S 18:13:36 87° E 18:17:57 10° N
USA 186 2.2 18:11:31 10° S 18:14:46 65° W 18:17:56 10° NNW
Cosmos 1092 Rocket 4.2 18:10:11 10° N 18:16:22 55° ENE 18:22:26 10° SSE
CZ-4 R/B 4.3 18:13:46 10° SW 18:16:40 18° W 18:19:35 10° NW
SJ-6B 2.6 18:14:02 10° SSE 18:17:45 87° E 18:21:31 10° NNW
Cosmos 1455 2.9 18:14:28 10° SSE 18:17:50 32° E 18:21:12 10° NNE
ATLAS 5 CENTAUR R/B 3.2 18:14:35 10° WSW 18:18:20 35° NW 18:22:35 10° NNE
Cosmos 2058 Rocket 3.5 18:15:45 10° SSE 18:19:50 41° E 18:23:56 10° NNE
ERS-2 3.5 18:20:31 10° N 18:24:00 43° WNW 18:27:27 10° SW
Cosmos 405 Rocket 4.3 18:23:07 10° NNE 18:26:16 21° ENE 18:27:53 17° E
In-Cosmos 22 Rocket 4.3 18:21:27 10° NNW 18:27:20 88° WSW 18:33:09 10° S
Cosmos 1953 Rocket 3.5 18:23:51 10° N 18:28:15 84° E 18:32:35 10° S
Cosmos 2237 Rocket 3.7 18:24:28 10° N 18:28:49 22° NE 18:32:20 13° E
Resurs 01 Rocket 2.2 18:26:03 16° SE 18:29:12 39° ENE 18:33:22 10° N
Cosmos 1992 Rocket 4.2 18:27:57 10° NNW 18:33:06 56° ENE 18:36:53 18° SE
Cosmos 1818 4.3 18:29:00 10° S 18:33:38 29° ESE 18:38:18 10° NE
Cosmos 2034 Rocket 4.3 18:32:01 10° SSW 18:38:10 70° W 18:44:27 10° N
CENTAUR R/B 4.2 18:32:01 10° NW 18:39:43 44° WSW 18:47:57 10° S
ATLAS 3B R/B 3.0 18:37:46 10° NW 18:44:41 60° NE 18:49:40 21° ESE
USA 215 3.4 18:40:14 18° ESE 18:45:15 69° NNE 18:51:46 10° NW
BREEZE-M DEB (TANK) 4.0 18:41:10 10° WSW 18:45:16 74° NNW 19:00:53 10° ENE
Resurs 1-3 3.6 18:41:31 12° SSE 18:45:34 86° WSW 18:49:59 10° NNW
Cosmos 2227 Rocket 4.2 18:47:16 11° ENE 18:47:16 11° ENE 18:47:41 10° ENE
SL-8 R/B 3.8 18:42:11 10° WNW 18:47:02 77° NNE 18:50:07 22° E
Cosmos 2333 Rocket 2.2 18:41:44 10° NNW 18:47:32 88° ENE 18:51:48 19° SSE
Cosmos 1076 Rocket 4.3 18:43:51 10° N 18:47:49 33° ENE 18:49:17 26° ESE
Cosmos 2058 2.9 18:44:02 10° N 18:48:12 61° E 18:50:36 24° SSE
Cosmos 2322 Rocket 4.2 18:43:59 10° NW 18:48:36 26° WSW 18:53:12 10° SSW
RESURS DK-1 2.7 18:45:00 10° S 18:48:52 42° ESE 18:52:48 10° NE
COSMOS 2487 2.3 18:45:52 10° SSW 18:49:17 84° WNW 18:52:42 10° NNE
Cosmos 1428 Rocket 4.5 18:43:46 10° N 18:50:02 77° E 18:55:41 13° SSE
Meteor 2-10 Rocket 3.8 18:44:57 10° SSW 18:50:06 73° WNW 18:55:33 10° N
Cosmos 2151 4.5 18:47:06 10° NNE 18:50:22 21° ENE 18:51:06 20° E
Cosmos 1892 3.6 18:48:59 10° NNW 18:52:38 48° W 18:56:17 10° S
Cosmos 2297 Rocket 3.6 18:53:53 18° E 18:53:53 18° E 18:56:54 10° ENE
Cosmos 2279 Rocket 4.2 18:48:26 14° SSE 18:53:25 47° E 18:59:19 10° NNE
Cosmos 1633 4.2 18:51:00 10° NNE 18:53:35 19° ENE 18:53:35 19° ENE
Cosmos 2344 3.5 18:47:54 10° SSW 18:55:18 63° ESE 19:02:58 10° NE
MetOp-B 4.3 18:52:56 24° SE 18:56:03 54° ENE 19:01:17 10° N
ERS-1 Rocket 4.3 18:55:04 20° E 18:56:41 23° ENE 19:00:33 10° NNE
Landsat 7 4.0 18:54:28 26° SE 18:57:00 57° ENE 19:01:40 10° N
Meteor 2-1 Rocket 4.3 18:52:44 10° S 18:58:29 67° E 19:04:20 10° NNE
Cosmos 2322 3.9 18:54:54 10° NNW 19:00:33 72° WSW 19:04:34 20° SSE
Cosmos 2026 Rocket 3.9 18:56:25 10° N 19:02:31 87° W 19:07:50 14° S
IRIDIUM 106 4.5 19:03:49 26° SSE 19:06:30 53° E 19:11:35 10° NNE
Cosmos 1825 2.4 19:07:27 10° NNW 19:11:13 66° W 19:13:04 28° S
Cosmos 1356 3.3 19:10:33 10° N 19:13:57 61° ENE 19:14:10 60° E
BREEZE-M DEB (TANK) 4.0 19:10:41 10° W 19:14:57 75° N 19:31:10 10° ENE
Cosmos 1634 Rocket 4.1 19:09:13 10° SSW 19:15:31 77° W 19:21:48 10° N
IGS 5A 3.4 19:14:24 34° S 19:16:09 84° WSW 19:20:20 10° NNW
CZ-4C R/B 4.0 19:11:30 10° W 19:16:10 32° NNW 19:21:42 10° NNE
Spot 2 Rocket 3.8 19:16:14 36° ESE 19:17:53 50° ENE 19:22:48 10° N
Cosmos 2142 Rocket 4.4 19:11:43 10° S 19:17:56 80° E 19:24:20 10° N
ATLAS 5 CENTAUR R/B 2.8 19:17:51 10° WNW 19:19:04 20° WSW 19:19:04 20° WSW
Meteor 2-3 Rocket 4.4 19:14:40 10° N 19:20:04 39° ENE 19:21:36 33° ESE
Cosmos 1140 Rocket 4.5 19:21:10 27° E 19:21:10 27° E 19:24:42 10° NE
SL-16 R/B 3.8 19:16:57 10° N 19:21:15 21° NE 19:23:24 18° ENE
Cosmos 2292 Rocket 4.5 19:14:50 10° N 19:22:15 77° E 19:25:08 32° SSE
SPOT 1/Viking Rocket 3.5 19:20:11 37° SE 19:22:16 70° ENE 19:27:30 10° N
ARIANE 5 R/B 2.9 19:23:11 45° ESE 19:23:58 51° ENE 19:28:15 10° N
Cosmos 1980 4.0 19:18:29 10° NNW 19:24:03 52° ENE 19:25:56 37° ESE
COSMOS 2428 3.0 19:21:53 10° NNW 19:27:35 65° WSW 19:30:26 30° S
SPOT 3 Rocket 3.9 19:24:58 24° S 19:28:08 63° WSW 19:33:18 10° NNW
Cosmos 2251 Rocket 3.5 19:23:05 10° SSW 19:28:27 85° WNW 19:33:51 10° NNE
Cosmos 2360 Rocket 4.4 19:26:50 10° NW 19:30:52 20° W 19:34:53 10° SW
Cosmos 389 Rocket 2.4 19:34:30 78° NNE 19:34:30 78° NNE 19:37:51 10° N
OPS 8737 4.4 19:32:43 10° NW 19:35:48 85° NW 19:35:48 85° NW
Cosmos 2180 Rocket 4.3 19:32:32 27° S 19:36:03 77° E 19:42:12 10° N
Cosmos 1655 Rocket 4.0 19:30:26 10° N 19:36:44 66° E 19:38:53 42° SE
BREEZE-M DEB (TANK) 3.4 19:36:37 10° WNW 19:37:59 32° NW 19:37:59 32° NW
BREEZE-M (TANK) 3.9 19:24:00 10° WNW 19:42:19 65° SW 19:44:05 43° SSE
SPOT 5 3.0 19:42:59 50° E 19:43:10 50° ENE 19:47:41 10° N
Cosmos 44 3.6 19:38:58 10° SW 19:44:04 76° NW 19:49:28 10° NNE
Lacrosse 5 rocket 3.9 19:42:15 10° WNW 19:45:26 21° N 19:48:45 10° NE
USA 245 3.5 19:45:03 64° SSW 19:45:34 74° WSW 19:49:13 10° NNW
Cosmos 2219 Rocket 3.3 19:44:18 10° NW 19:49:29 37° WSW 19:52:17 23° SSW
ATLAS 2AS CENTAUR R/B 3.8 19:41:49 10° WSW 19:49:32 53° NW 19:57:05 10° NE
Meteor 2-16 Rocket 4.5 19:46:41 10° N 19:52:49 64° ENE 19:54:07 52° SE
Cosmos-2242 3.2 20:02:01 64° NNE 20:02:01 64° NNE 20:05:46 10° NNE
Cosmos 405 Rocket 4.2 19:58:42 10° NNW 20:02:19 32° W 20:03:01 30° WSW
Terra 2.0 20:02:40 56° ENE 20:02:40 56° ENE 20:07:12 10° N
Resurs 01 Rocket 3.7 20:03:37 16° SW 20:05:49 23° W 20:09:22 10° NW
Cosmos 2237 Rocket 2.1 20:07:51 10° NNW 20:13:30 74° WSW 20:14:10 66° SSW
Cosmos 1818 4.3 20:11:40 10° SW 20:16:58 51° NW 20:22:19 10° NNE
Okean 3 Rocket 4.1 20:13:52 10° N 20:17:36 55° NNE 20:17:36 55° NNE
Cosmos 2151 4.1 20:23:48 10° NNW 20:27:42 39° W 20:27:42 39° W
USA 215 3.8 20:27:34 40° SSW 20:28:30 42° SW 20:34:40 10° WNW
Cosmos 2227 Rocket 2.1 20:29:00 77° ENE 20:29:00 77° ENE 20:34:23 10° NNE
Cosmos 1766 Rocket 4.2 20:25:19 10° N 20:28:35 51° N 20:28:35 51° N
Cosmos 407 Rocket 3.8 20:30:56 55° WSW 20:31:41 62° WNW 20:36:50 10° NNE
ERS-1 Rocket 3.4 20:35:04 51° WSW 20:35:08 51° W 20:40:03 10° NNW
ATLAS 3B R/B 3.7 20:28:49 10° NW 20:35:09 36° WSW 20:36:56 32° SW
Cosmos 2219 3.2 20:35:30 74° WSW 20:35:55 79° WNW 20:41:34 10° NNE
Cosmos 2297 Rocket 2.3 20:35:35 59° WSW 20:36:33 72° WNW 20:42:13 10° NNE
Meteor 2-15 4.4 20:37:37 67° ENE 20:37:37 67° ENE 20:43:21 10° NNE
BREEZE-M DEB (TANK) 4.0 20:44:00 10° WNW 20:50:34 52° WNW 20:50:34 52° WNW
Timation 2 Rocket 4.3 20:59:55 46° WSW 21:01:47 64° WNW 21:08:07 10° NNE
SL-16 R/B 2.4 21:00:20 10° NNW 21:05:17 66° NW 21:05:17 66° NW
Cosmos 1745 Rocket 4.4 21:00:05 10° N 21:05:50 53° ENE 21:05:50 53° ENE
COSMOS 2455 3.3 21:12:24 54° NE 21:12:24 54° NE 21:17:00 10° NE
SeaSat 1 3.4 21:08:02 10° NNE 21:11:19 42° NNE 21:11:19 42° NNE
S3M 4.4 21:18:12 54° ENE 21:18:12 54° ENE 21:23:33 10° NNE
USA 229 DEB 4.4 21:17:19 10° NW 21:24:23 52° NE 21:25:54 46° ENE
USA 229 4.4 21:17:25 10° NW 21:24:29 52° NE 21:26:01 46° ENE
Lacrosse 5 rocket 3.7 21:22:27 10° NW 21:25:51 22° NNE 21:26:19 21° NNE
Cosmos 841 Rocket 4.5 21:25:27 10° NNW 21:29:12 44° N 21:29:12 44° N
Cosmos 1943 4.0 21:32:12 10° NNW 21:36:45 45° NNE 21:36:45 45° NNE
Terra 4.1 21:41:32 17° WNW 21:41:32 17° WNW 21:43:52 10° NW
USA 281 4.1 21:41:08 36° ENE 21:42:07 38° NE 21:48:04 10° NNW
NOSS 3-1 (A) 4.3 21:34:58 10° NW 21:42:16 61° NE 21:43:51 52° E
Cosmos 1553 Rocket 4.4 21:49:49 55° NW 21:49:49 55° NW 21:55:17 10° N
NOSS 3-1 (C) 4.0 22:02:10 10° NW 22:09:24 75° WSW 22:09:24 75° WSW
Cosmos 2227 Rocket 4.3 22:10:45 15° W 22:13:26 21° NW 22:17:40 10° N
Cosmos 2315 Rocket 4.3 22:15:17 63° NNE 22:15:17 63° NNE 22:20:32 10° N
Cosmos 2263 Rocket 3.1 22:16:26 44° NNE 22:16:26 44° NNE 22:20:10 10° NNE
Cosmos 1844 Rocket 4.5 22:31:59 22° ENE 22:31:59 22° ENE 22:34:27 10° NE
Cosmos 2074 Rocket 4.3 22:46:51 10° N 22:52:10 64° NNE 22:52:10 64° NNE
Lacrosse 5 rocket 4.3 23:01:28 10° NW 23:01:54 13° NW 23:01:54 13° NW
SL-16 R/B 3.6 23:14:46 34° E 23:16:11 38° ENE 23:21:54 10° N
Resurs 1-4 Rocket 3.7 23:14:37 10° NE 23:18:16 27° ENE 23:18:16 27° ENE
CZ-2D R/B 3.6 23:15:15 10° NE 23:19:21 28° E 23:19:21 28° E
Nadezhda 1 Rocket 4.1 23:22:23 73° NE 23:22:23 73° NE 23:28:12 10° N
Cosmos 1844 4.4 23:23:14 49° ENE 23:23:14 49° ENE 23:27:35 10° NNE
BREEZE-M DEB (TANK) 4.4 23:10:54 10° W 23:24:43 65° N 23:27:25 24° ENE
SJ 16-02 4.1 23:26:42 12° ENE 23:26:42 12° ENE 23:27:28 10° ENE
USA 281 3.9 23:28:00 43° WNW 23:28:00 43° WNW 23:32:50 10° NNW
ATLAS 5 CENTAUR R/B 4.1 23:33:12 10° NNW 23:37:47 28° NE 23:43:03 10° E
NPP 4.5 23:45:38 10° NNE 23:50:25 42° E 23:50:25 42° E
Cosmos 2154 Rocket 4.4 23:46:39 10° NNW 23:52:03 54° WNW 23:52:03 54° WNW
SL-4 R/B 3.5 23:55:06 42° N 23:55:06 42° N 23:59:28 10° ENE
